Regional Weather Roundup
Issued by NWS

Home | Current Version | Previous Version | Graphics & Text | Print | Product List | Glossary On
Versions: 1 2 3 4 5 6 7 8 9 10 11 12 13 14 15 16 17 18 19 20 21 22 23 24 25 26 27 28 29 30 31 32 33 34 35 36 37 38 39 40 41 42 43 44 45 46 47 48 49 50
616
ASUS45 KBOI 200010
RWRID

IDAHO REGIONAL WEATHER ROUNDUP
NATIONAL WEATHER SERVICE BOISE ID
500 PM MST FRI JAN 19 2018

NOTE: "FAIR" INDICATES FEW OR NO CLOUDS BELOW 12000 FEET
WITH NO SIGNIFICANT WEATHER AND/OR OBSTRUCTIONS TO VISIBILITY

IDZ012-014-200100-
SOUTHWEST IDAHO


CITY           SKY/WX    TMP DP  RH WIND       PRES   REMARKS
BOISE          CLEAR     42  26  53 NW12      29.96R
CALDWELL         N/A     44  25  47 SW15      29.98R
$$

IDZ016-017-200100-
SOUTHCENTRAL IDAHO


CITY           SKY/WX    TMP DP  RH WIND       PRES   REMARKS
BURLEY         MOCLDY    36  27  69 W12G24    29.91S WCI  28
JEROME         PTCLDY    37  27  67 W16       29.93R WCI  28
TWIN FALLS     MOCLDY    35  29  78 SW10      29.93S WCI  27
$$

IDZ019>023-200100-
SOUTHEAST IDAHO


CITY           SKY/WX    TMP DP  RH WIND       PRES   REMARKS
IDAHO FALLS    CLOUDY    33  29  85 S17       29.84S WCI  22
POCATELLO      CLOUDY    34  30  85 SW25      29.89S WCI  21
REXBURG        CLOUDY    32  30  92 SW16G24   29.82R WCI  21
$$

IDZ006-010-011-018-031-032-200100-
CENTRAL IDAHO MOUNTAINS


CITY           SKY/WX    TMP DP  RH WIND       PRES   REMARKS
MCCALL         CLOUDY    27  22  81 SE5       29.87R WCI  22
HAILEY         PTCLDY    34  21  60 W12G17    29.85R WCI  25
STANLEY          N/A     24  19  81 N3        29.86R
SALMON         MOCLDY    36  21  54 CALM      29.89R
CHALLIS        FLURRIES  31  23  72 NW10      29.85R WCI  22
$$

IDZ002-004-006-007-026-200100-
NORTHERN IDAHO


CITY           SKY/WX    TMP DP  RH WIND       PRES   REMARKS
LEWISTON       MOCLDY    42  39  89 SE5       29.96S
LOWELL           N/A     38  37  97 CALM      30.00R
COEUR D`ALENE  CLOUDY    36  32  85 S5        29.91R WCI  32
MULLAN PASS    LGT SNOW  22  21  96 W5        29.78S VSB 3/4 WCI  16
$$




USA.gov is the U.S. government's official web portal to all federal, state and local government web resources and services.